Regional Weather Roundup
Issued by NWS Grand Forks, ND

Home | Current Version | Previous Version | Graphics & Text | Print | Product List | Glossary On
Versions: 1 2 3 4 5 6 7 8 9 10 11 12 13 14 15 16 17 18 19 20 21 22 23 24 25 26 27 28 29 30 31 32 33 34 35 36 37 38 39 40 41 42 43 44 45 46 47 48 49 50
000
ASUS43 KFGF 291031
RWRFGF
PRAIRIE TO PINES  WEATHER ROUNDUP
NATIONAL WEATHER SERVICE EASTERN NORTH DAKOTA/GRAND FORKS ND
500 AM CDT THU JUN 29 2017

 **SATELLITE DATA USED TO AUGMENT SKY COVER AT AUTOMATED STATIONS**
 *****  WEATHER ACROSS EASTERN NORTH DAKOTA  *****

CITY           SKY/WX    TMP DP  RH WIND       PRES   REMARKS
GRAND FORKS    MOCLDY    57  57 100 SW3       29.74R FOG
GRAND FRKS AFB FOG       57  57 100 NW3       29.74R VSB 1/8
DEVILS LAKE    FOG       54  54 100 NW3       29.77R VSB 1/4
FARGO          CLOUDY    61  59  93 N8        29.74R
WAHPETON ARPT  CLOUDY    61  57  88 NW3       29.74S
$$

 ***** WEATHER ACROSS CENTRAL AND WESTERN NORTH DAKOTA  *****

CITY           SKY/WX    TMP DP  RH WIND       PRES   REMARKS
BISMARCK       FAIR      60  55  83 CALM      29.78R
MINOT          FAIR      56  50  80 W7        29.77R
JAMESTOWN      FAIR      53  50  89 CALM      29.76R
MINOT AFB      FAIR      50  48  92 SW3       29.76R
GARRISON         N/A     56  51  84 CALM      29.78R
WILLISTON      FAIR      53  47  79 N5        29.80S
DICKINSON      FAIR      56  45  66 E8        29.77S
HETTINGER      CLOUDY    57  47  69 CALM      29.80S
$$

 *****  OTHER AIRPORT OBSERVATIONS IN OUR AREA  *****

CITY           SKY/WX    TMP DP  RH WIND       PRES   REMARKS
WALHALLA       NOT AVBL
GRAFTON AIRPOR FOG       55  55 100 NW5       29.75R VSB<1/4
VALLEY CITY AR FOG       52  52 100 E5        29.78R VSB<1/4
CANDO          NOT AVBL
CAVALIER APRT  FOG       54  54 100 CALM      29.73S VSB<1/4
GWINNER        CLOUDY    54  54 100 CALM      29.74F
SHEYENNE NWR     N/A     56  56 100 CALM      29.95S
ROLLA            N/A     54  52  94 W7        29.78R
 ***** THE ABOVE OBSERVATIONS ARE NON NWS ARE NOT QUALITY
       CONTROLLED AND MAY MIS-REPORT RAIN FOR SNOW...
$$

  *****  WEATHER ACROSS NORTHERN MINNESOTA  *****

CITY           SKY/WX    TMP DP  RH WIND       PRES   REMARKS
FLAG ISLAND    CLOUDY    61  57  88 N8        29.70S
WARROAD        FAIR      55  52  88 NW7       29.73R
ROSEAU         HAZE      55  52  88 NW3       29.74R VSB 3/4
HALLOCK        FOG       52  52 100 E5        29.74R VSB 3/4
THF RVR FALLS  FOG       57  57 100 N8        29.75R VSB 1/2
BAUDETTE       FAIR      58  58 100 N7        29.69R
WASKISH        CLOUDY    59  57  94 NW6       29.70R
CROOKSTON      FAIR      55  55 100 N3        29.74R
STEPHEN NDAWN    N/A     55  55 100 E1          N/A
GREENBUSH NDAW   N/A     54  54 100 W3          N/A
$$
  *****  WEATHER ACROSS CENTRAL AND WEST MINNESOTA  *****

CITY           SKY/WX    TMP DP  RH WIND       PRES   REMARKS
FOSSTON        CLOUDY    57  57 100 NW3       29.74R
BEMIDJI        CLOUDY    58  58  98 NW6       29.71R
PARK RAPIDS    CLOUDY    61  56  83 NW10      29.71R
ELBOW LAKE     CLOUDY    61  59  94 W5        29.73F
WADENA         CLOUDY    61  57  88 NW6       29.71R
DETROIT LAKES  CLOUDY    59  59 100 NW6       29.74S
MOORHEAD       CLOUDY    61  57  88 N7        29.74S
FERGUS FALLS   CLOUDY    61  61 100 NW7       29.71S
MORRIS MN      CLOUDY    63  61  94 NW13      29.71F
STAPLES        CLOUDY    61  57  88 NW8       29.71R
$$
  *****  WEATHER ELSEWHERE ACROSS MINNESOTA  *****

CITY           SKY/WX    TMP DP  RH WIND       PRES   REMARKS
DULUTH         DRIZZLE   59  59 100 NW9       29.58R
INTRNTL FALLS  CLOUDY    60  57  89 N5        29.67R
ELY            DRIZZLE   57  55  94 N3        29.59S
CLOQUET        CLOUDY    59  57  94 NW9       29.60R
WHEATON        CLOUDY    61  59  94 N3        29.74F FOG
BRAINERD       CLOUDY    61  59  93 NW8       29.67R
HIBBING        CLOUDY    58  58 100 N12       29.60F
ALEXANDRIA     CLOUDY    62  59  90 NW9       29.73S
SAINT CLOUD    CLOUDY    63  59  87 NW13      29.69R
MINNEAPOLIS    MOCLDY    66  59  78 W9        29.67R
$$

  *****  WEATHER ACROSS SOUTH DAKOTA  *****

CITY           SKY/WX    TMP DP  RH WIND       PRES   REMARKS
SIOUX FALLS    MOCLDY    57  56  96 CALM      29.74R
BROOKINGS      FAIR      54  53  97 CALM      29.74S
WATERTOWN      FOG       50  50 100 N6        29.72F VSB 1/4
HURON          FAIR      54  49  83 N3        29.73S
SISSETON         N/A     54  54 100 N5        29.71F
ABERDEEN       FAIR      51  48  89 CALM      29.74F
MITCHELL       FAIR      57  51  80 NE5       29.73S
PIERRE         MOCLDY    56  45  66 CALM      29.74R
MOBRIDGE       FAIR      62  47  57 E7        29.74S
RAPID CITY     CLOUDY    60  51  72 N15       29.82F
$$

  *****  SOME WEATHER IN NEARBY STATES *****

CITY           SKY/WX    TMP DP  RH WIND       PRES   REMARKS
GLASGOW MT     FAIR      52  43  71 NE8       29.79S
GREAT FALLS MT CLOUDY    52  44  74 NW9       30.02R
CHEYENNE WY    FAIR      55  37  50 W9        29.96R
SCOTTSBLUFF NE FAIR      55  51  86 NW7       29.82R
OMAHA NE       CLOUDY    72  66  81 SE6       29.74R
DES MOINES IA  CLOUDY    69  67  93 SW8       29.75R
DAVENPORT IA   NOT AVBL
CHICAGO IL     MOCLDY    71  64  78 S9        29.72S
EAU CLAIRE WI  CLOUDY    64  61  90 W7        29.62S
LA CROSSE WI   FAIR      66  62  87 CALM      29.65R
$$

  *****  SOME NATIONAL WEATHER *****

CITY           SKY/WX    TMP DP  RH WIND       PRES   REMARKS
LA GUARDIA NY  MOCLDY    69  58  67 SW8       30.15S
RALEIGH NC     MOCLDY    60  57  89 CALM      30.21R
ATLANTA GA     CLOUDY    72  66  81 E8        30.17R
NEW ORLEANS LA LGT RAIN  76  74  93 S8        29.97R
OKLAHOMA CITY  FAIR      74  67  78 S20G26    29.81R
ALBUQUERQUE NM FAIR      75  18  11 S8        30.03R
SALT LAKE CITY FAIR      68  49  50 N3        29.94R
LOS ANGELES CA CLOUDY    64  58  80 SE5       29.89F
BOISE ID       FAIR      59  42  53 CALM      29.94R
SEATTLE WA     FAIR      54  51  90 S5        30.11R
$$

*** WEATHER ACROSS MANITOBA...SASKATCHEWAN AND ONTARIO ***
                ***ONTARIO***

CITY           SKY/WX    TMP DP  RH WIND       PRES   REMARKS
GERALDTON      MOCLDY    54  52  94 NE7       29.74S
THUNDER BAY    LGT RAIN  54  54 100 E16       29.61S
SIOUX LOOKOUT  CLOUDY    61  50  67 NE5       29.72S
TORONTO        CLOUDY    59  55  88 SE9       29.93S
BIG TROUT LK   CLOUDY    55  46  71 E7        29.88R
PICKLE LAKE    NOT AVBL
DRYDEN         LGT RAIN  61  54  77 NE9       29.71R
KENORA         CLOUDY    57  57 100 N5        29.72S
$$
                *** MANITOBA***

CITY           SKY/WX    TMP DP  RH WIND       PRES   REMARKS
BRANDON        PTCLDY    48  46  93 NW5       29.75R
DAUPHIN        CLEAR     55  54  94 W8        29.74S
ISLAND LAKE    CLOUDY    55  54  94 E6        29.78S
PILOT MOUND      N/A     52  50  93 E1          N/A
THE PAS        CLOUDY    50  48  93 NW8       29.77R FOG
THOMPSON       LGT RAIN  50  48  93 NE8G17    29.79S FOG
WINNIPEG       PTCLDY    54  54 100 NE3       29.73S
LYNN LAKE      LGT RAIN  45  45 100 NE12G22   29.85S FOG
CHURCHILL      MOCLDY    39  37  93 E8        30.08F
GILLAM         CLOUDY    46  41  81 E8G17     29.91S
$$
                ***SASKATCHEWAN***

CITY           SKY/WX    TMP DP  RH WIND       PRES   REMARKS
ESTEVAN        CLOUDY    54  52  94 NE7       29.79S
KINDERSLEY     MOCLDY    50  48  93 N20G26    29.90R
LLOYDMINSTER   MOCLDY    46  41  81 N7        29.97R
PRINCE ALBERT  NOT AVBL
REGINA         MOCLDY    54  50  87 E7        29.79S
YORKTON        CLOUDY    55  52  88 S2        29.77F
N. BATTLEFORD  MOCLDY    46  45  93 N8        29.95R
LA RONGE       CLOUDY    46  45  93 NW7       29.86S
SASKATOON      MOCLDY    50  48  93 N12G20    29.89R
SWIFT CURRENT  CLEAR     50  48  93 W12       29.85S
$$
NOTE: THESE ARE AUTOMATED STATIONS WITH LIMITED QUALITY CONTROL
      "FAIR" INDICATES FEW OR NO CLOUDS BELOW 12,000 FEET WITH NO
      SIGNIFICANT WEATHER AND/OR OBSTRUCTIONS TO VISIBILITY.
      SKY/WX - SKY CONDITION AND SIGNIFICANT WEATHER.
      TMP - AIR TEMPERATURE.    DP   - DEWPOINT TEMPERATURE.
      RH  - RELATIVE HUMIDITY.  PRES - PRESSURE.
      HX  - HEAT INDEX.         WCI  - WIND CHILL INDEX.
$




USA.gov is the U.S. government's official web portal to all federal, state and local government web resources and services.